Wind_Speed
22 25 24 25 23 21 19 17 16 15 15 14 13 13 14 14 14 13 13 13 13 12 12 12 13 14 14 13 15 14 15 16 17 18 20 21 19 16 14 17 16 17 16
32 25 23 25 24 21 18 18 16 16 15 14 13 12 13 13 11 11 11 12 12 13 12 11 13 13 13 14 15 15 14 15 16 18 19 18 16 15 16 14 16 18 17
31 28 23 21 21 20 18 18 17 16 16 14 12 11 12 12 10 10 10 11 11 12 12 12 12 13 12 13 16 14 13 15 16 17 17 17 16 15 17 16 15 16 16
32 28 25 20 18 17 16 17 18 16 17 15 12 10 10 11 11 10 10 9 10 10 11 12 12 12 12 14 14 14 15 15 15 15 15 15 15 15 14 15 15 15 15
26 26 25 22 19 15 14 15 16 16 16 14 12 10 9 9 10 10 9 8 9 11 10 11 11 12 13 13 14 13 12 13 10 7 8 12 15 14 15 14 15 14 11
27 23 23 21 19 18 14 14 15 15 15 14 12 9 8 9 11 10 10 9 10 10 11 9 10 11 12 13 13 12 10 9 9 6 22 15 14 16 14 12 12 13 12
24 21 19 20 19 18 18 13 13 14 14 13 12 12 8 8 10 9 11 9 10 10 10 10 10 10 10 11 11 10 7 5 8 12 19 13 11 15 14 13 11 10 11
20 14 17 18 19 19 19 18 13 13 13 12 9 11 11 9 9 9 10 10 9 10 10 10 10 10 10 10 11 10 7 4 7 8 14 9 11 13 13 12 10 10 10
36 6 14 15 18 17 17 16 13 11 11 11 10 11 12 12 10 9 9 10 10 9 10 9 9 10 10 9 10 9 6 2 5 9 10 11 11 13 12 12 10 9 9
49 6 21 17 12 15 16 15 15 12 11 10 10 9 11 12 11 10 9 9 9 10 9 10 10 10 10 9 9 8 6 4 3 5 6 12 12 12 12 12 12 10 9
40 11 26 18 16 13 13 15 15 14 12 11 11 10 12 12 10 10 10 10 9 10 9 9 10 11 11 11 9 7 6 6 2 4 9 15 10 10 12 11 11 11 11
33 19 16 20 19 17 15 16 17 16 16 14 12 12 13 12 10 11 11 13 10 11 11 11 12 10 10 11 10 8 7 6 2 4 6 13 8 9 10 9 10 10 10
27 23 18 21 20 16 17 16 18 15 14 13 13 12 11 12 11 11 13 13 13 13 13 14 13 13 12 12 9 9 7 9 4 7 8 11 9 10 10 8 9 9 10
28 23 19 13 17 15 15 16 17 19 19 16 14 14 13 11 15 16 15 13 13 15 13 13 12 14 13 11 12 17 13 8 10 12 11 10 9 8 10 8 8 10 11
27 23 21 17 17 16 16 15 12 15 17 15 17 17 16 17 15 16 17 16 14 14 15 17 13 12 12 13 17 11 17 15 9 16 15 9 7 9 9 10 10 10 11
29 26 22 17 12 14 13 13 13 13 15 14 13 17 16 16 16 16 16 19 18 18 17 14 17 14 13 14 11 10 11 13 10 4 12 11 15 9 12 10 11 10 11
31 27 23 18 14 14 12 13 14 12 13 12 14 15 17 16 17 17 17 19 20 22 19 17 15 13 14 11 11 10 12 10 8 8 6 9 14 13 12 14 11 11 11
29 27 22 19 16 12 12 12 14 15 15 16 15 18 18 18 20 19 20 10 15 19 17 13 14 14 10 10 11 11 12 8 8 9 10 14 13 15 15 17 14 12 11
27 25 22 21 18 12 12 10 11 12 15 15 15 15 17 19 19 20 19 8 11 18 16 15 13 13 12 13 14 13 13 11 13 12 13 15 18 18 20 17 16 17 18
24 25 25 22 16 12 12 12 11 9 12 14 11 13 19 21 22 22 19 13 19 22 18 12 9 10 11 11 12 12 13 12 14 11 13 12 13 12 18 13 12 21 18
23 23 22 19 17 17 15 14 12 13 14 14 14 13 16 20 22 23 23 21 20 14 11 9 6 12 15 12 9 11 9 8 13 15 13 14 13 12 22 17 13 15 17
26 23 21 20 22 20 15 16 11 12 11 11 11 11 12 15 21 23 21 20 20 15 12 12 11 10 14 13 5 3 2 6 12 7 9 6 2 8 7 10 9 10 11
27 26 25 22 22 19 16 14 13 9 6 7 10 8 6 6 12 21 23 19 18 17 15 11 12 13 15 14 11 6 1 4 1 3 2 2 4 3 1 2 3 5 6
29 25 24 22 20 20 16 21 15 12 8 8 7 8 4 2 3 10 20 17 16 19 17 13 12 14 13 15 13 16 16 3 3 1 1 5 3 4 7 6 3 3 6
30 28 25 24 20 21 18 17 14 11 9 8 9 7 6 4 5 5 12 17 16 17 17 14 11 13 17 20 22 20 13 12 8 3 2 1 2 6 7 6 5 5 4
29 28 28 25 23 21 20 18 12 15 11 12 10 9 8 5 4 9 8 11 10 11 13 12 10 8 7 10 13 17 17 7 8 5 2 3 8 5 5 3 1 1 2
Wind_Direction
146 147 148 151 150 144 137 133 134 136 134 128 117 107 103 101 95 100 100 99 101 105 119 115 109 107 104 107 107 110 115 111 109 107 106 103 98 98 111 107 107 108 110
152 146 146 151 153 150 143 139 139 142 142 135 124 116 112 110 114 110 111 107 105 105 120 121 118 111 109 108 113 119 113 110 109 107 111 107 98 91 121 117 113 116 111
146 144 142 147 153 154 151 148 147 145 144 140 135 126 122 122 119 117 113 111 111 110 120 126 122 113 120 112 116 123 119 120 121 115 118 118 108 98 108 114 111 116 113
145 144 142 143 148 156 160 157 154 150 146 143 139 130 126 126 125 125 125 122 119 122 126 134 125 126 130 125 126 128 127 124 128 136 107 113 114 113 109 114 110 122 117
138 146 144 146 147 150 159 160 156 153 148 146 143 135 136 141 139 131 132 130 127 132 133 134 128 137 132 136 136 137 136 128 123 127 173 142 116 120 116 113 119 114 116
150 147 150 150 148 144 145 157 156 155 152 152 146 140 148 148 147 143 137 138 137 138 135 134 136 139 141 143 144 148 146 136 118 94 155 140 123 130 124 129 124 129 133
133 138 149 155 151 147 144 152 157 158 159 160 155 142 148 159 155 155 146 145 149 143 138 141 147 149 148 148 152 158 147 114 74 139 146 133 132 140 134 141 133 133 130
129 133 145 159 153 152 152 151 161 161 160 161 161 152 149 156 162 163 153 154 149 153 146 153 158 157 162 164 165 166 156 142 86 160 154 155 142 149 148 147 143 143 143
111 124 173 164 152 152 153 153 159 166 163 161 160 156 153 152 159 154 162 163 162 158 156 160 160 166 173 175 172 171 169 159 97 112 177 165 156 157 158 155 154 147 148
152 111 162 160 167 160 162 160 164 171 172 171 170 171 168 162 159 164 164 170 171 172 170 170 173 176 180 178 182 183 205 202 102 75 215 182 159 167 162 163 166 166 168
159 109 168 168 171 169 172 170 174 180 181 182 182 183 177 184 185 181 182 179 178 176 175 179 181 188 188 193 199 206 210 175 134 312 202 181 173 170 167 160 166 172 176
157 134 149 179 172 176 183 183 189 187 188 193 193 197 199 196 202 206 197 198 191 183 184 190 196 197 200 205 211 220 219 199 161 266 175 176 168 170 172 167 174 182 185
166 159 155 170 175 178 189 194 192 191 197 198 196 210 211 201 209 202 201 194 193 193 194 194 198 207 212 209 218 237 264 241 240 245 210 193 198 183 178 170 184 192 197
161 159 162 169 181 184 190 192 197 196 200 199 208 214 228 213 210 204 201 204 203 201 196 203 207 218 215 207 228 253 257 253 290 219 202 206 194 201 206 199 196 202 206
157 162 164 175 192 194 185 186 184 203 212 206 209 212 220 219 217 207 211 208 204 201 199 216 219 218 221 231 234 245 239 247 297 240 216 199 226 238 233 244 219 217 218
156 164 167 169 184 202 203 194 199 198 204 205 213 215 218 219 217 209 215 218 218 210 203 206 215 214 227 224 224 239 241 252 255 207 214 250 227 245 231 239 245 238 241
160 166 169 172 172 192 199 208 204 195 198 205 214 210 203 216 218 218 217 216 221 207 206 201 205 210 214 225 230 232 235 242 242 235 269 259 226 228 238 240 245 246 246
163 167 170 174 180 189 202 205 202 191 199 198 209 215 217 211 222 225 223 233 237 230 196 199 196 206 214 216 228 236 241 241 247 250 247 241 251 238 236 236 242 235 233
166 167 166 172 179 177 173 176 186 195 209 214 223 234 221 215 222 227 225 234 209 218 203 202 190 202 223 236 230 239 232 233 232 247 252 248 257 259 253 247 234 226 224
149 160 162 167 172 172 172 171 187 195 199 208 212 218 225 227 228 232 224 205 183 217 203 205 212 222 241 241 241 255 245 247 254 250 255 263 263 260 241 245 254 244 230
162 164 164 165 175 176 178 186 190 207 210 212 221 236 236 235 234 236 239 220 216 220 207 183 226 237 243 239 264 267 259 269 248 249 264 279 272 257 264 241 255 252 238
167 175 177 179 181 188 191 194 199 208 231 218 221 242 250 249 236 233 239 247 241 241 233 223 227 231 250 246 226 240 327 279 247 249 276 280 10 262 282 241 248 257 258
165 178 181 186 190 192 185 194 201 187 185 212 221 221 232 246 233 225 227 237 238 228 231 224 227 233 245 255 234 203 133 230 342 45 334 311 74 115 194 219 205 207 228
171 179 183 188 195 200 200 201 201 195 209 237 238 225 202 208 259 218 221 214 229 229 222 236 245 242 242 249 254 238 237 201 174 316 296 17 78 46 330 298 343 301 279
171 178 185 190 198 194 192 199 193 190 201 212 197 200 198 191 243 218 210 206 213 228 226 239 242 247 249 249 252 249 249 226 200 148 233 320 149 256 281 286 308 320 316
168 174 184 188 196 201 201 204 189 191 182 183 185 194 195 212 214 219 198 181 192 205 219 232 238 243 254 242 255 244 213 182 196 182 191 183 187 221 275 297 272 24 123
Height
784 783 784 787 791 793 795 798 801 804 806 808 809 810 811 812 813 815 817 819 820 821 822 824 826 827 827 829 828 831 832 834 835 835 836 837 839 840 842 843 844 846 847
780 785 787 788 791 794 797 798 801 804 807 809 811 812 813 814 816 817 819 820 821 822 824 825 827 827 828 829 829 832 834 835 836 836 838 839 841 842 843 845 845 847 849
783 784 789 793 794 796 798 800 802 805 807 810 812 813 814 815 817 819 821 822 823 824 826 827 828 828 830 829 830 833 835 836 838 839 840 840 842 844 845 846 847 848 850
783 787 790 795 798 799 801 802 803 805 807 810 813 814 815 816 818 821 822 823 824 825 828 829 829 829 830 830 832 833 835 837 839 841 842 843 844 846 847 848 849 850 851
788 788 789 791 796 802 804 805 805 807 808 810 812 815 817 818 819 821 823 824 825 827 829 830 830 831 831 831 833 834 836 839 840 841 843 844 844 847 848 850 851 851 852
785 788 790 793 795 798 805 808 808 809 810 811 813 816 818 819 820 821 823 825 826 828 829 831 832 833 833 833 834 835 836 839 841 842 842 844 845 847 849 851 852 853 853
788 789 793 794 795 799 802 809 810 811 811 813 814 816 819 821 822 823 824 825 827 829 830 832 833 834 834 835 835 836 837 838 841 843 842 843 845 847 849 851 852 853 854
784 795 792 796 796 798 802 804 811 812 812 814 816 816 818 822 823 824 825 826 828 829 831 832 833 835 835 836 836 837 838 839 841 842 842 843 844 846 848 851 853 854 855
777 797 794 798 796 799 801 804 809 812 813 814 815 817 818 821 823 825 826 826 828 829 831 832 833 835 836 836 836 838 839 839 841 844 845 843 844 845 847 850 853 855 856
783 782 787 793 800 798 801 803 807 811 813 814 815 817 819 821 822 824 826 827 828 830 832 832 833 834 835 836 836 838 839 840 841 843 843 844 844 845 846 849 851 854 856
787 786 788 791 795 798 800 802 806 809 812 814 814 816 818 820 822 823 824 827 828 829 831 832 833 834 834 835 836 837 839 840 840 842 842 843 844 846 847 848 851 853 855
786 786 789 791 793 796 800 801 804 806 810 812 813 815 816 819 821 823 824 826 827 829 830 832 833 833 834 835 836 836 838 840 841 842 842 843 845 846 847 848 850 852 854
781 785 787 790 792 793 797 801 804 805 808 810 812 814 816 818 820 821 823 825 826 827 828 830 831 832 833 834 835 836 837 839 840 842 841 842 843 845 846 846 848 851 853
779 782 785 788 790 793 796 800 804 805 807 809 811 813 815 818 820 820 821 822 823 825 826 828 829 830 832 833 835 836 837 837 839 840 840 842 843 844 845 845 846 847 848
777 781 784 787 790 793 795 798 800 803 807 807 808 810 813 816 818 820 819 819 820 821 823 826 827 829 831 832 834 835 835 836 837 838 839 841 843 844 846 847 844 845 847
775 778 782 785 788 791 793 795 797 801 804 805 806 807 810 812 814 816 818 817 818 819 821 822 825 827 828 830 833 833 833 834 836 836 838 837 840 841 843 843 844 844 845
772 777 780 782 785 789 792 794 796 799 800 802 804 806 807 809 811 813 814 816 817 819 820 820 822 824 826 827 829 830 831 832 832 834 835 836 837 838 838 840 842 842 843
770 775 779 782 784 786 788 791 793 796 799 800 802 803 803 805 807 809 814 818 820 821 821 819 819 821 824 826 826 827 828 829 829 831 833 833 834 835 836 837 838 839 840
767 772 776 780 783 785 788 790 793 796 798 799 800 801 801 803 804 807 813 815 815 820 820 818 816 818 821 823 825 825 825 826 827 829 829 830 831 832 832 832 835 835 835
766 770 774 778 782 785 788 789 793 795 797 798 800 799 801 801 802 804 811 813 812 820 817 814 814 816 818 821 822 822 822 823 825 826 827 828 827 827 828 829 834 835 834
766 769 772 776 781 783 786 788 790 792 794 796 797 798 799 799 799 799 805 811 813 814 811 810 811 814 817 819 820 820 819 820 821 822 823 824 824 824 823 822 829 830 830
763 768 771 774 778 781 783 786 788 789 791 792 794 795 795 795 794 795 797 801 803 805 806 807 809 812 815 817 819 820 821 819 818 821 821 821 821 821 821 823 824 823 825
759 765 768 772 775 779 780 784 786 787 789 790 791 791 791 790 789 791 792 795 798 800 802 804 807 810 813 815 817 818 822 822 818 818 818 818 819 822 822 821 822 823 822
755 762 767 771 774 776 779 781 783 785 787 788 788 787 788 789 789 789 790 793 797 799 801 803 805 807 810 810 813 814 815 815 818 821 818 818 817 818 820 818 820 820 820
752 758 763 768 771 773 776 779 781 783 784 785 787 786 787 787 788 788 790 792 793 796 800 802 803 804 806 807 808 809 810 811 812 816 819 817 817 818 819 819 818 818 815
749 754 760 765 768 771 774 777 779 780 782 784 785 785 785 786 788 789 790 791 794 795 797 799 801 802 802 801 803 803 804 806 808 811 813 814 815 816 818 818 817 816 816